2020-031A (45608 NORAD) Tracking and Keplerian Element Data

This shows tracking and keplerian element data for the satellite.

Feedback or suggestion? Click here.




ElementValue
Catalog45608
Name2020-031A
Epoch Orbit1
Epoch Day144.36954356
Epoch Year2020
RAAN303.2111
Inclination63.8211
Eccentricity0.6964332
Argument of Perigee269.9725
Mean Anonmoly25.7675
Mean Motion2.01721972
Decay Rate-1.277E-05
L11 45608U 20031A 20144.36954356 -.00001277 00000-0 00000+0 0 9998
L22 45608 63.8211 303.2111 6964332 269.9725 25.7675 2.01721972 14

Live tracking and technical data element details for 2020-031A (NORAD 45608). 2020-031A can be tracked NOW for your location showing map with azimuth and elevation plus other details from your city location.

Track the satellite on the map from your city or location and see movement details for azimuth, elevation, latitude, longitude, range, height, and movement on the map or in text.







IsCatalogInMostPopularTable: catalog: 45608, numindb: -1

Insert: records affected: 1


GetName: 45608 2020-031A

Hit Count: inserted at: Mon, 25 May 2020 07:15:11 GMT